Regional Weather Roundup
Issued by NWS

Home | Current Version | Previous Version | Text Only | Print | Product List | Glossary On
Versions: 1 2 3 4 5 6 7 8 9 10 11 12 13 14 15 16 17 18 19 20 21 22 23 24 25 26 27 28 29 30 31 32 33 34 35 36 37 38 39 40 41 42 43 44 45 46 47 48 49 50
000
ASUS44 KLUB 290210
RWRTX
WEST TEXAS WEATHER ROUNDUP
NATIONAL WEATHER SERVICE LUBBOCK TX
900 PM CDT THU MAY 28 2015

NOTE: "FAIR" INDICATES FEW OR NO CLOUDS BELOW 12,000 FEET WITH NO
SIGNIFICANT WEATHER AND/OR OBSTRUCTIONS TO VISIBILITY.

TXZ004-006>008-010-012-014-016-OKZ002-290300-
TEXAS PANHANDLE/OKLAHOMA PANHANDLE

CITY           SKY/WX    TMP DP  RH WIND       PRES   REMARKS
AMARILLO       CLOUDY    64  53  67 VRB6      29.96S
BORGER         CLOUDY    69  47  45 NE12      29.99R
CANADIAN       CLOUDY    70  57  63 NW8       29.98R
DALHART        CLOUDY    64  49  57 E9        29.96S
DUMAS          CLOUDY    62  48  60 E9        29.98F
GUYMON         CLOUDY    62  56  80 SE9       29.93F
HEREFORD       CLOUDY    60  56  86 MISG      29.95S
PAMPA          CLOUDY    63  51  65 NW9       30.02R
PERRYTON       CLOUDY    63  54  72 NW7       30.00F
$$

TXZ026-029-035-045-048-290300-
SOUTHERN PANHANDLE/SOUTH PLAINS/ROLLING PLAINS

CITY           SKY/WX    TMP DP  RH WIND       PRES   REMARKS
CHILDRESS      CLOUDY    66  56  70 SE9       29.86R
SEMINOLE       CLOUDY    62  55  78 E16G22    29.98S
LUBBOCK        CLOUDY    64  52  64 S16       29.89S
PLAINVIEW      CLOUDY    62  55  77 S9        29.89F
SNYDER         RAIN      61  59  96 E9        30.02F
$$

TXZ052-054-060>062-072-078-127-140-154-169-290300-
PERMIAN BASIN/CONCHO VALLEY/BIG COUNTRY/EDWARDS PLATEAU

CITY           SKY/WX    TMP DP  RH WIND       PRES   REMARKS
ABILENE        CLOUDY    65  62  90 N10       30.01S THUNDER
BIG SPRING     CLOUDY    61  59  94 E28       29.96F
BRADY          MOCLDY    79  70  73 SE9       29.92R
BROWNWOOD      LGT RAIN  66  59  77 N21G41    29.98R
JUNCTION       LGT RAIN  80  71  74 S12       29.93R
MIDLAND        CLOUDY    67  55  65 SE18G25   29.89S
ODESSA         CLOUDY    67  55  65 E15       29.91R
SAN ANGELO     TSTM      63  60  90 N20G30    30.06R
SONORA         CLOUDY    64  59  82 N18G26    30.07R
SWEETWATER     CLOUDY    62  62 100 W5        30.07F THUNDER
WINK           CLOUDY    70  54  56 SE6       29.85R
$$

TXZ055-058-074-075-080-082-290300-
FAR WEST/SOUTHWEST MOUNTAINS/TRANS PECOS

CITY           SKY/WX    TMP DP  RH WIND       PRES   REMARKS
ALPINE         PTCLDY    64  58  80 CALM      30.04S
DRYDEN           N/A     75  58  55 N12G24    29.90R
EL PASO        PTCLDY    89  15   6 W20       29.90R
FORT STOCKTON  CLOUDY    64  58  80 SE9       29.90R
GUADALUPE PASS CLEAR     78  15   9 W20G26    30.02R
MARFA          CLEAR     72  46  40 NE9       30.01R
PECOS          CLOUDY    66  60  79 CALM      29.86S
PRESIDIO       FAIR      93  22   8 CALM      29.82R
$$

TXZ014-016-019-021>030-083-290300
TEXAS TECH WEST TEXAS MESONET/TEXAS PANHANDLE/NORTHERN SOUTH PLAINS

CITY           SKY/WX    TMP DP  RH WIND       PRES   REMARKS
ABERNATHY 5ENE   N/A     63  52  67 S16       29.91S
AMARILLO 7SSE    N/A     62  54  76 E2        29.93F
AMHERST 1NE      N/A     60  53  79 S13       29.89F
BOOTLEG 11WNW    N/A     59  55  85 S9        29.97S
CANADIAN 6E      N/A     68  55  62 NW9       29.98R
CHILDRESS 2NNE   N/A     65  56  72 E9        29.87R
CLARENDON 2WSW   N/A     61  53  75 NE3       29.92S
DIMMITT 2NE      N/A     59  53  80 SE7       29.95R
FLOYDADA 2NNE    N/A     65  51  60 NW14      29.89R
FRIONA 2NE       N/A     62  55  78 SE8       29.95S
GOODLETT 3W      N/A     65  57  76 NE7       29.87R
HART 3N          N/A     59  54  83 N5        29.93F
HEREFORD 2NW     N/A     61  52  71 E6        29.93F
MCLEAN 1E        N/A     64  50  60 S5        29.94R
MEMPHIS 1NE      N/A     63  56  78 N5        29.89R
MULESHOE 2SSW    N/A     62  53  72 S15       29.89F
OLTON 6S         N/A     59  54  82 S10       29.90F
PALO DURO SP     N/A     64  51  63 E1        29.92F
PAMPA 2E         N/A     63  52  67 NW13      30.01R
PLAINVIEW 1S     N/A     62  55  77 SW7       29.89F
SILVERTON 7ESE   N/A     64  50  60 S8        29.90S
TULIA 2ENE       N/A     60  54  80 NE2       29.92F
TURKEY 2WSW      N/A     62  55  78 E6        29.87S
UMBARGER 3NNE    N/A     59  53  80 SE8       29.93F
$$

TXZ033>036-039>041-045>048-290300
TEXAS TECH WEST TEXAS MESONET/SOUTH PLAINS

CITY           SKY/WX    TMP DP  RH WIND       PRES   REMARKS
AIKEN 3WSW       N/A     62  55  76 SW12      29.90F
ANDREWS 2NE      N/A     61  57  84 NE14      29.97R
ANTON 6SSW       N/A     61  54  78 S9        29.92R
BROWNFIELD 2S    N/A     61  55  80 SE20      29.92F
DENVR CTY 7WNW   N/A     62  53  72 E17       29.95R
GAIL 2ESE        N/A     60  57  91 E21       29.88F
LAMESA 2SE       N/A     60  57  91 NE10      29.98R
LEVELLAND 4S     N/A     63  52  68 SE10      29.94R
LUBBOCK 3WNW     N/A     63  52  67 S12       29.91R
MORTON 1ENE    LGT RAIN  60  54  78 SE20      29.95S
ODONNELL 1N      N/A     60  54  81 E20       29.90F
PLAINS 3N        N/A     64  54  70 SE17      29.95R
RALLS 1SE        N/A     64  53  67 S17       29.90R
REESE CENTER     N/A     61  54  77 S13       29.92R
SEAGRAVES 1SW    N/A     62  55  75 SE13      29.93F
SEMINOLE 2NNE    N/A     62  54  76 E17       29.95F
SLATON 2NE       N/A     60  56  84 SE14      29.91S
SNYDER 3E      LGT RAIN  60  59  97 E7        30.02F
SUNDOWN 8SW      N/A     62  54  75 SE8       29.95R
TAHOKA 3NNE      N/A     62  55  79 SE9       29.89F
WOLFFORTH 6SSW   N/A     60  58  94 SE16      29.92R
$$

TXZ031-032-036>038-042>044-290300-
TEXAS TECH WEST TEXAS MESONET/ROLLING PLAINS

CITY           SKY/WX    TMP DP  RH WIND       PRES   REMARKS
ASPERMONT 3NE  LGT RAIN  62  60  94 S13       29.98F
FLUVANNA 3WNW  LGT RAIN  60  56  87 E16       29.97F
GRAHAM 5SSW      N/A     59  56  90 E17       29.90F
GUTHRIE 10WSW  LGT RAIN  63  57  82 SE15      29.88F
HASKELL 1NW    LGT RAIN  64  60  89 S2        29.99R
JAYTON 1SSE      N/A     61  59  93 S10       29.95F
KNOX CITY 3NW  LGT RAIN  65  59  81 S18       29.94R
LK A HENRY 1NW LGT RAIN  62  59  90 S18       29.93F
NORTHFIELD 1S    N/A     64  56  77 SE9       29.86F
ODELL 4ENE       N/A     67  60  79 E7        29.89R
PADUCAH 10SW     N/A     66  55  68 S23G36    29.84F
POST 1NE         N/A     61  57  87 S23       29.90F
RRING SPRGS 3N   N/A     62  56  79 S17       29.85F
SEYMOUR 3NW      N/A     66  60  80 E10       29.95R
SPUR 1W          N/A     64  55  73 S20       29.87F
WEINERT 2NNE     N/A     64  62  91 S13       29.98R
WHITE RVR 6NE    N/A     64  54  69 S14       29.89F
$$

TXZ052-054-060>062-072-078-127-140-154-169-290300-
TEXAS TECH WEST TEXAS MESONET/PERMIAN BASIN/
CONCHO VALLEY/BIG COUNTRY/EDWARDS PLATEAU

CITY           SKY/WX    TMP DP  RH WIND       PRES   REMARKS
COYANOSA 2N      N/A     66  62  86 S12       29.87R
JUNCTION 1SSW    N/A     78  72  81 SE9       29.92S
MERTZON 3NNE     N/A     61  60  94 NE7       30.11R
SAN ANGELO 7NW LGT RAIN  61  59  92 N12       30.08R
STRLNG CT 4WSW   N/A     61  59  94 E6        30.05R
ST LAWRNCE 5SW   N/A     61  58  91 E16       29.99F
SWEETWATR 11SW   N/A     60  59  97 NE6       30.04F
$$

TXZ055-058-074-075-080-082-290300-
TEXAS TECH WEST TEXAS MESONET/FAR WEST/SOUTHWEST MOUNTAINS/TRANS PECOS

CITY           SKY/WX    TMP DP  RH WIND       PRES   REMARKS
PRSMN GAP BBNP   N/A     78  62  56 NE22      29.87R
$$


USA.gov is the U.S. government's official web portal to all federal, state and local government web resources and services.